Karlovy Vary, Czech Republic

7:02 AM CEST on September 29, 2016 (GMT +0200)
Karlovy Vary

Weather History for LKKV - November, 2012

Change the Weather History Date:

Friday, November 16, 2012

  Actual Average (EDQM) Record (EDQM)
Temperature  
Mean Temperature 30 °F -  
Max Temperature 33 °F 37 °F 57 °F (2006)
Min Temperature 28 °F 31 °F 19 °F (1999)
Degree Days  
Heating Degree Days 34    
Moisture  
Dew Point 29 °F    
Average Humidity 95    
Maximum Humidity 100    
Minimum Humidity 87    
Precipitation  
Precipitation 0.00 in - - ()
Sea Level Pressure  
Sea Level Pressure 30.08 in    
Wind  
Wind Speed 3 mph ()    
Max Wind Speed 7 mph    
Max Gust Speed -    
Visibility 2.4 miles    
Events Fog    
Averages and records for this station are not official NWS values.
T = Trace of Precipitation, MM = Missing Value Source: Averaged Metar Reports

Daily Weather History Graph

Daily Weather History Graph

Search for Another Location

Airport or City:

Trip Planner

Search our weather history database for the weather conditions in past years. The results will help you decide how hot, cold, wet, or windy it might be!

Date:

Astronomy

Nov. 16, 2012 Rise Set
Actual Time 7:23 AM CET 4:21 PM CET
Civil Twilight 6:47 AM CET 4:57 PM CET
Nautical Twilight 6:08 AM CET 5:37 PM CET
Astronomical Twilight 5:29 AM CET 6:15 PM CET
Moon 10:08 AM CET (11/16) 6:56 PM CET (11/16)
Length of Visible Light 10h 09m
Length of Day
8h 58m
Waxing Crescent, 9% of the Moon is Illuminated
Nov 16
Waxing Crescent
Nov 20
First Quarter
Nov 28
Full
Dec 6
Last Quarter
Dec 13
New

Hourly Weather History & Observations

Time (CET) Temp. Windchill Dew Point Humidity Pressure Visibility Wind Dir Wind Speed Gust Speed Precip Events Conditions
12:00 AM 28.4 °F 24.6 °F 26.6 °F 93% 30.12 in 1.9 mi ESE 3.5 mph - N/A   Overcast
1:00 AM 28.4 °F 23.3 °F 26.6 °F 93% 30.12 in 1.9 mi ESE 4.6 mph - N/A   Overcast
2:00 AM 28.4 °F 24.6 °F 26.6 °F 93% 30.12 in 2.8 mi East 3.5 mph - N/A   Overcast
3:00 AM 28.4 °F - 26.6 °F 93% 30.12 in 2.8 mi Variable 2.3 mph - N/A   Overcast
4:00 AM 28.4 °F - 26.6 °F 93% 30.12 in 3.1 mi Variable 1.2 mph - N/A   Overcast
5:00 AM 28.4 °F 24.6 °F 26.6 °F 93% 30.09 in 3.1 mi ESE 3.5 mph - N/A   Overcast
6:00 AM 28.4 °F - 26.6 °F 93% 30.09 in 3.1 mi Variable 2.3 mph - N/A   Overcast
7:00 AM 28.4 °F 24.6 °F 26.6 °F 93% 30.09 in 3.1 mi SSE 3.5 mph - N/A   Overcast
7:30 AM 28.4 °F 24.6 °F 26.6 °F 93% 30.09 in - SSW 3.5 mph - N/A   Overcast
8:00 AM 28.4 °F 24.6 °F 26.6 °F 93% 30.12 in 1.9 mi ESE 3.5 mph - N/A   Overcast
8:30 AM 28.4 °F - 26.6 °F 93% 30.12 in 2.2 mi Variable 2.3 mph - N/A   Overcast
9:00 AM 28.4 °F 24.6 °F 26.6 °F 93% 30.12 in - South 3.5 mph - N/A   Overcast
9:30 AM 28.4 °F 23.3 °F 26.6 °F 93% 30.12 in - South 4.6 mph - N/A   Overcast
10:00 AM 28.4 °F 24.6 °F 26.6 °F 93% 30.12 in 2.2 mi SE 3.5 mph - N/A   Overcast
10:30 AM 28.4 °F 24.6 °F 28.4 °F 100% 30.12 in 2.2 mi SSE 3.5 mph - N/A   Overcast
11:00 AM 30.2 °F 26.7 °F 28.4 °F 93% 30.12 in 3.1 mi South 3.5 mph - N/A   Overcast
11:30 AM 30.2 °F 26.7 °F 28.4 °F 93% 30.12 in 3.1 mi South 3.5 mph - N/A   Overcast
12:00 PM 30.2 °F 26.7 °F 28.4 °F 93% 30.09 in 3.1 mi South 3.5 mph - N/A   Overcast
12:30 PM 32.0 °F 28.7 °F 30.2 °F 93% 30.09 in 3.1 mi SE 3.5 mph - N/A   Overcast
1:00 PM 32.0 °F 28.7 °F 30.2 °F 93% 30.09 in 3.7 mi SSE 3.5 mph - N/A   Overcast
1:30 PM 32.0 °F 28.7 °F 30.2 °F 93% 30.06 in 3.7 mi SE 3.5 mph - N/A   Overcast
2:00 PM 32.0 °F 28.7 °F 30.2 °F 93% 30.06 in 3.7 mi ESE 3.5 mph - N/A   Overcast
2:30 PM 33.8 °F 30.8 °F 30.2 °F 87% 30.06 in 5.0 mi SE 3.5 mph - N/A   Overcast
3:00 PM 32.0 °F 28.7 °F 30.2 °F 93% 30.06 in 3.7 mi ESE 3.5 mph - N/A   Overcast
3:09 PM 32.0 °F 28.7 °F 30.2 °F 93% 30.06 in 2.5 mi ESE 3.5 mph - N/A   Overcast
3:30 PM 32.0 °F 28.7 °F 32.0 °F 100% 30.06 in 2.5 mi ESE 3.5 mph - N/A   Overcast
4:00 PM 32.0 °F 28.7 °F 30.2 °F 93% 30.06 in 1.9 mi ESE 3.5 mph - N/A   Overcast
4:30 PM 32.0 °F - 30.2 °F 93% 30.06 in 1.9 mi Variable 2.3 mph - N/A   Overcast
5:00 PM 32.0 °F 26.4 °F 30.2 °F 93% 30.06 in 3.1 mi ESE 5.8 mph - N/A   Overcast
5:30 PM 30.2 °F 23.4 °F 30.2 °F 100% 30.06 in 1.9 mi East 6.9 mph - N/A   Overcast
6:00 PM 30.2 °F 23.4 °F 30.2 °F 100% 30.06 in 1.9 mi East 6.9 mph - N/A   Overcast
6:30 PM 30.2 °F 25.4 °F 30.2 °F 100% 30.06 in 1.9 mi ESE 4.6 mph - N/A   Overcast
7:00 PM 30.2 °F 25.4 °F 30.2 °F 100% 30.06 in 1.2 mi ESE 4.6 mph - N/A   Overcast
7:30 PM 30.2 °F 24.3 °F 30.2 °F 100% 30.06 in 0.9 mi ESE 5.8 mph - N/A   Overcast
8:00 PM 30.2 °F 24.3 °F 30.2 °F 100% 30.06 in 0.9 mi ESE 5.8 mph - N/A   Overcast
9:00 PM 32.0 °F 28.7 °F 30.2 °F 93% 30.06 in 0.7 mi ESE 3.5 mph - N/A   Overcast
10:00 PM 32.0 °F 27.5 °F 32.0 °F 100% 30.06 in 0.6 mi ESE 4.6 mph - N/A Fog Fog
10:30 PM 32.0 °F 28.7 °F 32.0 °F 100% 30.04 in 0.6 mi ESE 3.5 mph - N/A Fog Fog
11:00 PM 32.0 °F 27.5 °F 32.0 °F 100% 30.04 in 0.9 mi ESE 4.6 mph - N/A   Overcast